Home > Weather > San Jose > Past weeks

Flag for USA Past Weather in San Jose, California, USA — Yesterday and Last 2 Weeks

Now
60 °F

Passing clouds.


Feels Like: 60 °F
Forecast: 53 / 81 °F
Wind: 7 mph from Southeast

Location: San Jose International Airport

Current Time: May 27, 2016 at 9:26:49 AM

Latest Report: May 27, 2016 at 8:53 AM


Visibility: 10 mi

Pressure: 29.97 "Hg

Humidity: 69%

Dew Point: 50 °F

Location of San JoseLocation

Past Weather in San Jose — Graph

°F

San Jose Temperature Yesterday

Maximum temperature yesterday: 77 °F (at 1:53 PM)
Minimum temperature yesterday: 51 °F (at 5:53 AM)
Average temperature yesterday: 63 °F

High & Low Weather Summary for the Past Weeks

 TemperatureHumidityPressure
High88 °F (May 17, 2:53 PM)86% (May 27, 4:53 AM)30.15 "Hg (May 27, 4:53 AM)
Low49 °F (May 22, 5:53 AM)22% (May 17, 3:53 PM)29.80 "Hg (May 20, 4:53 AM)
Average63 °F63%29.98 "Hg
* Reported May 12 7:53 AM — May 27 7:53 AM, San Jose, Weather by CustomWeather, © 2016

Note: Actual official high and low records may vary slightly from our data, if they occured in-between our weather recording intervals... More about our weather records

Advertising

San Jose Weather History for the Previous 24 Hours

Scroll right to see more
 ConditionsComfort  
Time TempWeatherWind HumidityBarometerVisibility
7:53 AM
Fri, May 27
57 °FPassing clouds.6 mph78%29.97 "Hg8 mi
6:53 AM54 °FPartly sunny.10 mph86%29.96 "Hg7 mi
5:53 AM53 °FFog.10 mph86%29.96 "Hg6 mi
4:53 AM53 °FClear.10 mph86%29.96 "Hg10 mi
3:53 AM54 °FClear.10 mph83%29.97 "Hg10 mi
2:53 AM55 °FClear.8 mph80%29.97 "Hg10 mi
1:53 AM55 °FClear.8 mph80%29.99 "Hg10 mi
12:53 AM55 °FClear.5 mph80%30.00 "Hg10 mi
11:53 PM
Thu, May 26
57 °FClear.3 mph74%30.01 "Hg10 mi
10:53 PM58 °FClear.3 mph72%30.02 "Hg9 mi
9:53 PM59 °FPassing clouds.6 mph69%30.02 "Hg10 mi
8:53 PM61 °FPassing clouds.7 mph67%30.01 "Hg10 mi
7:53 PM63 °FPassing clouds.10 mph65%30.02 "Hg10 mi
6:53 PM66 °FPassing clouds.15 mph59%30.01 "Hg10 mi
5:53 PM68 °FPassing clouds.18 mph59%30.01 "Hg10 mi
4:53 PM73 °FPassing clouds.17 mph53%30.01 "Hg10 mi
3:53 PM74 °FPassing clouds.14 mph52%30.01 "Hg10 mi
2:53 PM77 °FPassing clouds.12 mph48%30.03 "Hg10 mi
1:53 PM77 °FPassing clouds.9 mph42%30.04 "Hg10 mi
12:53 PM75 °FPassing clouds.No wind42%30.06 "Hg10 mi
11:53 AM70 °FPassing clouds.5 mph47%30.07 "Hg10 mi
10:53 AM67 °FPassing clouds.6 mph53%30.08 "Hg10 mi
9:53 AM64 °FPassing clouds.8 mph58%30.09 "Hg10 mi
Weather by CustomWeather, © 2016

See weather overviewHow to use our weather pages